Printer-friendly version
Follow the MPC on Twitter Follow the MPC on Facebook The MPC blog
Minor Planet Center

MPEC 2010-P10 : 2010 OD101

The following Minor Planet Electronic Circular may be linked-to from your own Web pages, but must not otherwise be redistributed electronically.

A form allowing access to any MPEC is at the bottom of this page.


Read MPEC 2010-P09 Read MPEC 2010-P11


M.P.E.C. 2010-P10                                Issued 2010 Aug. 3, 12:18 UT

     The Minor Planet Electronic Circulars contain information on unusual
         minor planets and routine data on comets.  They are published
   on behalf of Commission 20 of the International Astronomical Union by the
          Minor Planet Center, Smithsonian Astrophysical Observatory,
                          Cambridge, MA 02138, U.S.A.

             Prepared using the Tamkin Foundation Computer Network

                              MPC@CFA.HARVARD.EDU
       URL http://www.minorplanetcenter.org/iau/mpc.html  ISSN 1523-6714

                                  2010 OD101

Observations:
     K10OA1D* S2010 07 23.29495 00 27 57.53 +50 39 34.9          22   R EP010C51
     K10OA1D  s2010 07 23.29495 1 + 3167.9840 + 2511.7456 + 5589.8619   EP010C51
     K10OA1D  S2010 07 23.42725 00 28 24.87 +50 36 48.7                 EP010C51
     K10OA1D  s2010 07 23.42725 1 + 3162.8111 + 2518.7823 + 5589.4796   EP010C51
     K10OA1D  S2010 07 23.62565 00 29 05.72 +50 32 37.2                 EP010C51
     K10OA1D  s2010 07 23.62565 1 + 3121.7212 + 2515.7094 + 5613.9362   EP010C51
     K10OA1D  S2010 07 23.62577 00 29 05.82 +50 32 37.0                 EP010C51
     K10OA1D  s2010 07 23.62577 1 + 3184.9322 + 2542.5896 + 5566.2427   EP010C51
     K10OA1D  S2010 07 23.82417 00 29 46.34 +50 28 24.2                 EP010C51
     K10OA1D  s2010 07 23.82417 1 + 3145.8177 + 2540.5018 + 5588.9771   EP010C51
     K10OA1D  S2010 07 23.89025 00 29 59.92 +50 26 59.3                 EP010C51
     K10OA1D  s2010 07 23.89025 1 + 3111.5587 + 2530.3695 + 5612.8191   EP010C51
     K10OA1D  S2010 07 23.95647 00 30 13.45 +50 25 35.3                 EP010C51
     K10OA1D  s2010 07 23.95647 1 + 3140.4795 + 2547.7131 + 5589.0008   EP010C51
     K10OA1D  S2010 07 24.02268 00 30 26.88 +50 24 09.7                 EP010C51
     K10OA1D  s2010 07 24.02268 1 + 3169.0793 + 2564.8861 + 5565.0705   EP010C51
     K10OA1D  S2010 07 24.08877 00 30 40.40 +50 22 42.4          22   R EP010C51
     K10OA1D  s2010 07 24.08877 1 + 3134.5675 + 2554.8565 + 5589.1683   EP010C51
     K10OA1D  S2010 07 24.28729 00 31 20.70 +50 18 28.0                 EP010C51
     K10OA1D  s2010 07 24.28729 1 + 3157.6463 + 2579.6830 + 5564.8199   EP010C51
     K10OA1D  S2010 07 24.35338 00 31 34.07 +50 17 00.1                 EP010C51
     K10OA1D  s2010 07 24.35338 1 + 3124.0443 + 2569.6877 + 5588.1780   EP010C51
     K10OA1D  S2010 07 24.41960 00 31 47.35 +50 15 33.5                 EP010C51
     K10OA1D  s2010 07 24.41960 1 + 3152.6967 + 2586.9009 + 5564.1224   EP010C51
     K10OA1D  S2010 07 24.55190 00 32 14.04 +50 12 42.3                 EP010C51
     K10OA1D  s2010 07 24.55190 1 + 3145.9308 + 2593.5339 + 5565.0946   EP010C51
     K10OA1D  S2010 07 24.68420 00 32 40.58 +50 09 48.2                 EP010C51
     K10OA1D  s2010 07 24.68420 1 + 3139.9504 + 2600.8694 + 5564.8111   EP010C51
     K10OA1D  S2010 07 24.81651 00 33 07.05 +50 06 56.6                 EP010C51
     K10OA1D  s2010 07 24.81651 1 + 3134.9834 + 2608.4291 + 5563.8430   EP010C51
     K10OA1D  S2010 07 24.94881 00 33 33.48 +50 04 01.8                 EP010C51
     K10OA1D  s2010 07 24.94881 1 + 3129.5305 + 2615.6264 + 5563.8270   EP010C51
     K10OA1D  C2010 08 02.34373000 58 34.20 +46 37 49.0          20.9 V EP010H21
     K10OA1D  C2010 08 02.35844700 58 36.36 +46 37 26.1          20.8 V EP010H21
     K10OA1D IC2010 08 02.37283600 58 38.48 +46 37 03.3                 EP010H21

Observer details:
C51 WISE.  Measurers A. K. Mainzer, E. L. Wright, J. M. Bauer, T. Grav,
    J. W. Dailey, J. R. Masiero, R. M. Cutri, R. S. McMillan, R. G. Walker.
    (http://wise.ssl.berkeley.edu/mission_sci.html).
H21 Astronomical Research Observatory, Westfield.  Observer R. Holmes.
    Measurer S. Foglia.

Orbital elements:
2010 OD101                                               Earth MOID = 0.1906 AU
Epoch 2010 July 23.0 TT = JDT 2455400.5                 MPC
M  10.96322              (2000.0)            P               Q
n   0.47772307     Peri.  102.71963     +0.30416076     +0.95231760
a   1.6206351      Node   185.17924     -0.94420436     +0.29803192
e   0.3587097      Incl.   15.43776     -0.12635013     +0.06533114
P   2.06           H   20.7           G   0.15           U   8
Residuals in seconds of arc
100723 C51  0.4+  0.9-    100724 C51  0.6-  0.7+    100724 C51  0.1-  1.0+
100723 C51  0.2+  0.1-    100724 C51  0.0   1.3-    100724 C51  0.4+  0.7+
100723 C51  0.1-  0.4+    100724 C51  0.4+  0.9+    100802 H21  0.1-  0.4-
100723 C51  0.7+  0.0     100724 C51  0.5+  1.0-    100802 H21  0.0   0.1+
100723 C51  0.9-  0.6+    100724 C51  0.3-  1.7-    100802 H21  0.2+  0.3+
100723 C51  0.3-  0.5+    100724 C51  0.1+  0.3-
100723 C51  0.1-  1.3+    100724 C51  0.0   1.2-

Ephemeris:
2010 OD101               a,e,i = 1.62, 0.36, 15                  q = 1.0393
Date    TT    R. A. (2000) Decl.     Delta      r     Elong.  Phase     V
2010 08 02    00 57.64   +46 47.1    0.327    1.090    94.4    68.2    20.9
2010 08 12    01 20.01   +41 45.2    0.321    1.123   101.7    62.1    20.7
2010 08 22    01 34.01   +35 32.2    0.313    1.162   111.2    54.2    20.5
2010 09 01    01 40.00   +28 03.9    0.308    1.206   123.2    44.5    20.3
2010 09 11    01 38.64   +19 30.0    0.310    1.253   137.4    33.0    20.0
2010 09 21    01 31.70   +10 32.6    0.326    1.303   152.7    20.7    19.9
2010 10 01    01 21.86   +02 21.0    0.360    1.354   166.5    10.0    19.8
2010 10 11    01 11.87   -04 06.0    0.412    1.405   168.9     7.9    20.1
2010 10 21    01 04.12   -08 27.1    0.484    1.457   158.9    14.3    20.7
2010 10 31    00 59.78   -10 56.0    0.571    1.509   148.2    20.3    21.4
2010 11 10    00 59.07   -11 58.1    0.673    1.559   138.5    24.9    22.0

Timothy B. Spahr             (C) Copyright 2010 MPC           M.P.E.C. 2010-P10

Read MPEC 2010-P09 Read MPEC 2010-P11


MPEC number:

Enter an MPEC number in one of the following forms:

  • 1997-B01 (the full form)
  • J97B01 (the packed version of the full form)
  • B01 (the abbreviated form)

Valid HTML 4.01!